Chicago Midway, IL

6:13 AM CST on November 17, 2019 (GMT -0600)
Chicago-Midway

Weather History for KMDW - October, 2019

Change the Weather History Date:

Tuesday, October 22, 2019

  Actual Average Record
Temperature  
Mean Temperature 49 °F 52 °F  
Max Temperature 52 °F 60 °F 87 °F (1953)
Min Temperature 45 °F 44 °F 24 °F (1930)
Degree Days  
Heating Degree Days 16 13  
Month to date heating degree days 205 215  
Since 1 July heating degree days 206 297  
Cooling Degree Days 0 0  
Month to date cooling degree days 21 13  
Year to date cooling degree days 1131 1042  
Moisture  
Dew Point 39 °F    
Average Humidity 65    
Maximum Humidity 80    
Minimum Humidity 45    
Precipitation  
Precipitation 0.05 in 0.11 in 1.77 in (1983)
Month to date precipitation 1.57 2.24  
Year to date precipitation 39.39 32.10  
Sea Level Pressure  
Sea Level Pressure 29.63 in    
Wind  
Wind Speed 17 mph (WSW)    
Max Wind Speed 29 mph    
Max Gust Speed 47 mph    
Visibility 10 miles    
Events Rain    
T = Trace of Precipitation, MM = Missing Value Source: NWS Daily Summary

Daily Weather History Graph

Daily Weather History Graph

Search for Another Location

Airport or City:

Astronomy

Oct. 22, 2019 Rise Set
Actual Time 7:11 AM CDT 5:59 PM CDT
Civil Twilight 6:42 AM CDT 6:27 PM CDT
Nautical Twilight 6:10 AM CDT 6:59 PM CDT
Astronomical Twilight 5:38 AM CDT 7:32 PM CDT
Moon 12:13 AM CDT (10/22) 3:15 PM CDT (10/22)
Length of Visible Light 11h 44m
Length of Day
10h 48m
Last Quarter, 37% of the Moon is Illuminated
Oct 22
Last Quarter
Oct 27
New
Nov 4
First Quarter
Nov 12
Full
Nov 19
Last Quarter

Hourly Weather History & Observations

Time (CDT) Temp. Windchill Dew Point Humidity Pressure Visibility Wind Dir Wind Speed Gust Speed Precip Events Conditions
12:53 AM 53.1 °F - 39.0 °F 59% 29.53 in 10.0 mi SSW 18.4 mph 27.6 mph N/A   Clear
1:53 AM 51.1 °F - 39.0 °F 63% 29.52 in 10.0 mi SSW 18.4 mph 28.8 mph N/A   Partly Cloudy
2:53 AM 51.1 °F - 39.0 °F 63% 29.51 in 10.0 mi SSW 20.7 mph 32.2 mph N/A   Mostly Cloudy
3:53 AM 51.1 °F - 39.9 °F 66% 29.49 in 10.0 mi SSW 17.3 mph 27.6 mph N/A   Overcast
4:53 AM 50.0 °F - 39.9 °F 68% 29.49 in 10.0 mi SW 18.4 mph 27.6 mph N/A   Scattered Clouds
5:28 AM 48.9 °F - 42.1 °F 77% 29.51 in 9.0 mi SW 20.7 mph 29.9 mph 0.00 in Rain Light Rain
5:36 AM 48.9 °F - 42.1 °F 77% 29.51 in 10.0 mi WSW 17.3 mph 31.1 mph 0.00 in Rain Light Rain
5:53 AM 48.9 °F - 42.1 °F 77% 29.51 in 10.0 mi WSW 18.4 mph 31.1 mph 0.00 in   Mostly Cloudy
6:53 AM 50.0 °F - 39.9 °F 68% 29.52 in 10.0 mi SW 21.9 mph 36.8 mph N/A   Mostly Cloudy
7:53 AM 48.9 °F - 39.9 °F 71% 29.53 in 10.0 mi SW 21.9 mph 29.9 mph N/A   Mostly Cloudy
8:53 AM 50.0 °F - 41.0 °F 71% 29.57 in 9.0 mi WSW 23.0 mph 34.5 mph 0.00 in Rain Light Rain
9:53 AM 48.0 °F - 42.1 °F 80% 29.58 in 8.0 mi WSW 16.1 mph 26.5 mph 0.01 in Rain Light Rain
10:53 AM 48.0 °F - 41.0 °F 77% 29.61 in 10.0 mi WSW 24.2 mph 38.0 mph 0.04 in   Overcast
11:36 AM 48.0 °F - 41.0 °F 77% 29.62 in 10.0 mi WSW 23.0 mph 36.8 mph 0.00 in   Overcast
11:53 AM 48.0 °F - 41.0 °F 77% 29.64 in 10.0 mi WSW 23.0 mph 32.2 mph 0.00 in Rain Light Rain
12:41 PM 48.9 °F - 39.0 °F 69% 29.64 in 10.0 mi WSW 18.4 mph 36.8 mph 0.00 in   Overcast
12:53 PM 48.0 °F - 39.0 °F 71% 29.66 in 10.0 mi West 20.7 mph 35.7 mph 0.00 in Rain Light Rain
1:32 PM 48.9 °F - 39.0 °F 69% 29.65 in 10.0 mi WSW 18.4 mph 31.1 mph 0.00 in   Overcast
1:53 PM 48.9 °F - 37.9 °F 66% 29.66 in 10.0 mi WSW 19.6 mph 31.1 mph 0.00 in   Overcast
2:53 PM 50.0 °F - 37.0 °F 61% 29.68 in 10.0 mi WSW 18.4 mph 31.1 mph N/A   Overcast
3:53 PM 51.1 °F - 37.0 °F 59% 29.69 in 10.0 mi WSW 13.8 mph 26.5 mph N/A   Overcast
4:53 PM 51.1 °F - 36.0 °F 56% 29.71 in 10.0 mi West 15.0 mph 28.8 mph N/A   Mostly Cloudy
5:53 PM 51.1 °F - 37.0 °F 59% 29.74 in 10.0 mi West 18.4 mph 25.3 mph N/A   Mostly Cloudy
6:53 PM 50.0 °F - 36.0 °F 59% 29.76 in 10.0 mi WSW 12.7 mph 23.0 mph N/A   Mostly Cloudy
7:53 PM 50.0 °F - 37.0 °F 61% 29.78 in 10.0 mi WSW 12.7 mph 24.2 mph N/A   Mostly Cloudy
8:53 PM 50.0 °F - 37.0 °F 61% 29.79 in 10.0 mi WSW 11.5 mph 19.6 mph N/A   Overcast
9:53 PM 50.0 °F - 35.1 °F 57% 29.81 in 10.0 mi WSW 13.8 mph 24.2 mph N/A   Scattered Clouds
10:53 PM 48.0 °F - 32.0 °F 54% 29.82 in 10.0 mi WSW 11.5 mph - N/A   Clear
11:53 PM 46.0 °F 39.9 °F 30.9 °F 56% 29.83 in 10.0 mi WSW 13.8 mph - N/A   Clear